Weather History for West Palm Beach, FL

Change the Weather History Date:

Monday, May 13, 2013

  Actual Average Record
Temperature  
Mean Temperature 78 °F 78 °F  
Max Temperature 84 °F 85 °F 93 °F (1967)
Min Temperature 72 °F 71 °F 57 °F (1928)
Degree Days  
Heating Degree Days 0 0  
Month to date heating degree days 0 0  
Since 1 July heating degree days 182 233  
Cooling Degree Days 13 13  
Month to date cooling degree days 126 155  
Year to date cooling degree days 863 850  
Growing Degree Days 28 (Base 50)    
Moisture  
Dew Point 67 °F    
Average Humidity 74    
Maximum Humidity 93    
Minimum Humidity 54    
Precipitation  
Precipitation 0.00 in 0.13 in 5.22 in (1946)
Month to date precipitation 1.40 1.25  
Year to date precipitation 8.27 15.45  
Snow  
Snow 0.00 in - - ()
Month to date snowfall 0.0  
Since 1 July snowfall 0.0  
Snow Depth 0.00 in    
Sea Level Pressure  
Sea Level Pressure 30.04 in    
Wind  
Wind Speed 7 mph (NW)    
Max Wind Speed 18 mph    
Max Gust Speed 22 mph    
Visibility 10 miles    
Events      
T = Trace of Precipitation, MM = Missing Value Source: NWS Daily Summary

Daily Weather History Graph

Daily Weather History Graph

Search for Another Location

Airport:

Trip Planner

Search our weather history database for the weather conditions in past years. The results will help you decide how hot, cold, wet, or windy it might be!

Date:

Astronomy

May. 13, 2013 Rise Set
Actual Time 6:34 AM EDT 7:59 PM EDT
Civil Twilight 6:09 AM EDT 8:24 PM EDT
Nautical Twilight 5:39 AM EDT 8:54 PM EDT
Astronomical Twilight 5:08 AM EDT 9:25 PM EDT
Moon 9:20 AM EDT (5/13) 11:07 PM EDT (5/13)
Length of Visible Light 14h 15m
Length of Day
13h 25m
Waxing Crescent, 12% of the Moon is Illuminated
May 13
Waxing Crescent
May 18
First Quarter
May 25
Full
May 31
Last Quarter
Jun 8
New

Hourly Weather History & Observations

Time (EDT) Temp. Heat Index Dew Point Humidity Pressure Visibility Wind Dir Wind Speed Gust Speed Precip Events Conditions
12:53 AM 72.0 °F - 70.0 °F 93% 30.03 in 10.0 mi WSW 5.8 mph - N/A   Partly Cloudy
1:53 AM 72.0 °F - 70.0 °F 93% 30.01 in 10.0 mi WSW 4.6 mph - N/A   Partly Cloudy
2:53 AM 71.1 °F - 70.0 °F 96% 30.00 in 10.0 mi Calm Calm - N/A   Clear
3:53 AM 70.0 °F - 69.1 °F 97% 30.00 in 10.0 mi West 3.5 mph - N/A   Scattered Clouds
4:53 AM 70.0 °F - 69.1 °F 97% 30.00 in 10.0 mi West 3.5 mph - N/A   Partly Cloudy
5:53 AM 71.1 °F - 70.0 °F 96% 30.01 in 10.0 mi WNW 4.6 mph - N/A   Scattered Clouds
6:53 AM 70.0 °F - 69.1 °F 97% 30.01 in 10.0 mi NW 4.6 mph - N/A   Mostly Cloudy
7:53 AM 72.0 °F - 69.1 °F 91% 30.03 in 10.0 mi NW 6.9 mph - N/A   Scattered Clouds
8:53 AM 75.9 °F - 68.0 °F 76% 30.05 in 10.0 mi NNW 6.9 mph - N/A   Scattered Clouds
9:53 AM 77.0 °F - 66.0 °F 69% 30.06 in 10.0 mi WNW 4.6 mph - N/A   Mostly Cloudy
10:53 AM 79.0 °F - 66.9 °F 66% 30.07 in 10.0 mi West 6.9 mph - N/A   Mostly Cloudy
11:53 AM 80.1 °F 82.3 °F 66.9 °F 64% 30.09 in 10.0 mi West 8.1 mph - N/A   Mostly Cloudy
12:53 PM 82.9 °F 86.5 °F 69.1 °F 63% 30.08 in 10.0 mi WNW 13.8 mph 18.4 mph N/A   Mostly Cloudy
1:53 PM 82.9 °F 85.0 °F 66.0 °F 56% 30.07 in 10.0 mi WNW 12.7 mph 20.7 mph N/A   Scattered Clouds
2:53 PM 84.9 °F 86.1 °F 64.0 °F 49% 30.06 in 10.0 mi WNW 13.8 mph 20.7 mph N/A   Mostly Cloudy
4:53 PM 84.0 °F 84.9 °F 63.0 °F 49% 30.04 in 10.0 mi NW 11.5 mph - N/A   Scattered Clouds
5:53 PM 80.1 °F 82.1 °F 66.0 °F 62% 30.04 in 10.0 mi North 11.5 mph - N/A   Scattered Clouds
6:53 PM 78.1 °F - 63.0 °F 60% 30.04 in 10.0 mi NNE 11.5 mph - N/A   Scattered Clouds
7:53 PM 77.0 °F - 64.4 °F 65% 30.05 in 10.0 mi NNE 9.2 mph - N/A   Scattered Clouds
8:53 PM 75.9 °F - 63.0 °F 64% 30.06 in 10.0 mi North 6.9 mph - N/A   Scattered Clouds
9:53 PM 75.0 °F - 63.0 °F 66% 30.07 in 10.0 mi NNE 4.6 mph - N/A   Scattered Clouds
10:53 PM 75.0 °F - 63.0 °F 66% 30.09 in 10.0 mi North 4.6 mph - N/A   Partly Cloudy
11:53 PM 75.9 °F - 63.0 °F 64% 30.09 in 10.0 mi NNE 6.9 mph - N/A   Scattered Clouds